Location: Unspecified
(44.0704°N, 88.6889°W)
Time: 09:47:09
(UTC+01:00)

CZ-3 Stage 3 - Pass Details

Date: 19 November 2019
Orbit: 406 x 34784 km, 30.6° (Epoch: 09 December)

Event Time Altitude Azimuth Distance (km) Brightness Sun altitude
Rises 02:53:22 0° 145° (SE) 40,612 10.9 -37.1°
Reaches altitude 10° 05:44:05 10° 152° (SSE) 28,488 10.1 -62.7°
Maximum altitude 06:32:51 12° 146° (SE) 20,512 9.4 -65.3°
Drops below altitude 10° 06:58:41 10° 135° (SE) 15,143 8.9 -65.0°
Sets 07:20:55 0° 112° (ESE) 10,298 8.3 -63.9°
